Orangeburg, SC

11:30 PM EST on December 04, 2016 (GMT -0500)
Orangeburg Municipal

Weather History for KOGB - December, 2013

Change the Weather History Date:

Sunday, December 8, 2013

  Actual Average Record
Temperature  
Mean Temperature 43 °F 50 °F  
Max Temperature 46 °F 61 °F 80 °F (1998)
Min Temperature 40 °F 38 °F 17 °F (2010)
Degree Days  
Heating Degree Days 22 16  
Month to date heating degree days 60 118  
Since 1 July heating degree days 456 487  
Moisture  
Dew Point 40 °F    
Average Humidity 91    
Maximum Humidity 96    
Minimum Humidity 86    
Precipitation  
Precipitation 0.21 in 0.09 in 1.28 in (1989)
Month to date precipitation 1.33 0.97  
Year to date precipitation 52.49 44.38  
Sea Level Pressure  
Sea Level Pressure 30.32 in    
Wind  
Wind Speed 8 mph (NE)    
Max Wind Speed 16 mph    
Max Gust Speed 22 mph    
Visibility 4 miles    
Events Rain    
T = Trace of Precipitation, MM = Missing Value Source: NWS Daily Summary

Daily Weather History Graph

Daily Weather History Graph

Search for Another Location

Airport or City:

Trip Planner

Search our weather history database for the weather conditions in past years. The results will help you decide how hot, cold, wet, or windy it might be!

Date:

Astronomy

Dec. 08, 2013 Rise Set
Actual Time 7:15 AM EST 5:15 PM EST
Civil Twilight 6:47 AM EST 5:42 PM EST
Nautical Twilight 6:17 AM EST 6:13 PM EST
Astronomical Twilight 5:46 AM EST 6:44 PM EST
Moon 11:48 AM EST (12/8) 11:48 PM EST (12/8)
Length of Visible Light 10h 55m
Length of Day
10h 00m
Waxing Crescent, 40% of the Moon is Illuminated
Dec 8
Waxing Crescent
Dec 9
First Quarter
Dec 17
Full
Dec 25
Last Quarter
Jan 1
New

Hourly Weather History & Observations

Time (EST) Temp. Windchill Dew Point Humidity Pressure Visibility Wind Dir Wind Speed Gust Speed Precip Events Conditions
12:53 AM 45.0 °F 38.9 °F 42.1 °F 90% 30.35 in 7.0 mi NE 12.7 mph 20.7 mph 0.00 in Rain Light Rain
1:53 AM 45.0 °F 40.1 °F 41.0 °F 86% 30.33 in 5.0 mi ENE 9.2 mph - 0.00 in Rain Light Rain
2:45 AM 45.0 °F 39.7 °F 41.0 °F 86% 30.34 in 10.0 mi ENE 10.4 mph - 0.00 in   Overcast
2:53 AM 44.1 °F 39.5 °F 41.0 °F 89% 30.34 in 10.0 mi ENE 8.1 mph 19.6 mph 0.00 in   Overcast
3:36 AM 44.1 °F 39.5 °F 41.0 °F 89% 30.33 in 10.0 mi ENE 8.1 mph - N/A   Overcast
3:53 AM 44.1 °F 38.6 °F 41.0 °F 89% 30.33 in 10.0 mi NE 10.4 mph - N/A   Overcast
4:22 AM 44.1 °F 40.1 °F 41.0 °F 89% 30.33 in 10.0 mi ENE 6.9 mph - N/A   Overcast
4:45 AM 44.1 °F 40.1 °F 41.0 °F 89% 30.32 in 8.0 mi ENE 6.9 mph - N/A   Overcast
4:53 AM 44.1 °F 40.1 °F 41.0 °F 89% 30.32 in 8.0 mi Variable 6.9 mph - N/A   Overcast
5:27 AM 44.1 °F 39.0 °F 41.0 °F 89% 30.33 in 4.0 mi ENE 9.2 mph - N/A   Overcast
5:45 AM 44.1 °F 39.5 °F 41.0 °F 89% 30.33 in 5.0 mi ENE 8.1 mph - N/A   Overcast
5:53 AM 44.1 °F 38.6 °F 41.0 °F 89% 30.33 in 4.0 mi ENE 10.4 mph - 0.00 in Rain Light Rain
6:53 AM 44.1 °F 40.1 °F 41.0 °F 89% 30.35 in 3.0 mi ENE 6.9 mph - 0.05 in Rain Heavy Rain
7:04 AM 44.1 °F 40.1 °F 41.0 °F 89% 30.35 in 2.5 mi ENE 6.9 mph - 0.02 in Rain Rain
7:22 AM 43.0 °F 38.2 °F 41.0 °F 93% 30.35 in 4.0 mi NE 8.1 mph - 0.06 in Rain Rain
7:39 AM 43.0 °F 37.7 °F 39.9 °F 89% 30.35 in 1.8 mi NE 9.2 mph - 0.09 in Rain Heavy Rain
7:53 AM 43.0 °F 38.2 °F 41.0 °F 93% 30.35 in 2.0 mi ENE 8.1 mph - 0.11 in Rain Light Rain
8:02 AM 43.0 °F 38.2 °F 41.0 °F 93% 30.36 in 6.0 mi NE 8.1 mph - 0.00 in Rain Light Rain
8:16 AM 43.0 °F 38.8 °F 41.0 °F 93% 30.36 in 1.8 mi ENE 6.9 mph - 0.01 in Rain Light Rain
8:37 AM 43.0 °F 39.5 °F 41.0 °F 93% 30.35 in 3.0 mi ENE 5.8 mph - 0.03 in Rain Light Rain
8:53 AM 43.0 °F 38.2 °F 41.0 °F 93% 30.36 in 4.0 mi ENE 8.1 mph - 0.04 in Rain Light Rain
9:44 AM 44.1 °F 39.0 °F 41.0 °F 89% 30.37 in 2.5 mi NE 9.2 mph - 0.00 in   Overcast
9:53 AM 43.0 °F 38.2 °F 41.0 °F 93% 30.38 in 1.8 mi NE 8.1 mph - 0.00 in Rain Light Rain
10:03 AM 43.0 °F 36.8 °F 41.0 °F 93% 30.37 in 2.5 mi NE 11.5 mph - 0.00 in Rain Light Rain
10:16 AM 43.0 °F 38.2 °F 39.9 °F 89% 30.38 in 4.0 mi ENE 8.1 mph - 0.00 in   Overcast
10:26 AM 43.0 °F 38.8 °F 41.0 °F 93% 30.38 in 1.8 mi NE 6.9 mph - 0.00 in Rain Light Rain
10:39 AM 43.0 °F 37.7 °F 39.9 °F 89% 30.36 in 3.0 mi ENE 9.2 mph - 0.01 in Rain Light Rain
10:53 AM 43.0 °F 37.7 °F 39.9 °F 89% 30.37 in 9.0 mi NE 9.2 mph 16.1 mph 0.01 in   Overcast
11:53 AM 43.0 °F 38.8 °F 41.0 °F 93% 30.33 in 10.0 mi ENE 6.9 mph - N/A   Overcast
12:31 PM 43.0 °F 37.7 °F 39.9 °F 89% 30.32 in 6.0 mi NE 9.2 mph - N/A   Overcast
12:53 PM 43.0 °F 38.2 °F 39.9 °F 89% 30.32 in 6.0 mi ENE 8.1 mph - N/A   Overcast
1:18 PM 43.0 °F 38.8 °F 41.0 °F 93% 30.31 in 2.5 mi NE 6.9 mph - N/A   Overcast
1:30 PM 43.0 °F 38.2 °F 41.0 °F 93% 30.30 in 1.5 mi NE 8.1 mph - 0.00 in Rain Light Rain
1:37 PM 43.0 °F 38.2 °F 41.0 °F 93% 30.29 in 1.5 mi NNE 8.1 mph - 0.00 in Rain Light Rain
1:46 PM 43.0 °F 37.7 °F 41.0 °F 93% 30.30 in 2.0 mi NNE 9.2 mph - 0.00 in Rain Light Rain
1:53 PM 43.0 °F 37.2 °F 41.0 °F 93% 30.30 in 2.0 mi NNE 10.4 mph - 0.00 in Rain Light Rain
2:03 PM 43.0 °F 37.7 °F 41.0 °F 93% 30.29 in 3.0 mi NNE 9.2 mph - 0.00 in Rain Light Rain
2:45 PM 43.0 °F 37.7 °F 39.9 °F 89% 30.29 in 3.0 mi NE 9.2 mph - 0.00 in   Overcast
2:53 PM 43.0 °F 37.7 °F 39.9 °F 89% 30.29 in 4.0 mi NE 9.2 mph - 0.00 in   Overcast
3:13 PM 43.0 °F 37.2 °F 39.9 °F 89% 30.28 in 4.0 mi NE 10.4 mph - N/A   Overcast
3:27 PM 43.0 °F 37.2 °F 39.9 °F 89% 30.28 in 2.5 mi NE 10.4 mph - 0.00 in Rain Light Rain
3:40 PM 43.0 °F 37.2 °F 39.9 °F 89% 30.28 in 3.0 mi NE 10.4 mph - 0.00 in   Overcast
3:53 PM 42.1 °F 37.1 °F 39.9 °F 92% 30.29 in 3.0 mi NE 8.1 mph - 0.00 in   Overcast
4:01 PM 43.0 °F 39.5 °F 39.9 °F 89% 30.29 in 2.5 mi NE 5.8 mph - N/A   Overcast
4:11 PM 42.1 °F 37.1 °F 39.9 °F 92% 30.29 in 2.5 mi NNE 8.1 mph - N/A   Overcast
4:35 PM 42.1 °F 36.6 °F 39.9 °F 92% 30.30 in 3.0 mi NE 9.2 mph - 0.00 in   Overcast
4:50 PM 42.8 °F 40.1 °F 39.2 °F 87% 30.30 in 2.0 mi NE 4.6 mph - 0.00 in   Overcast
4:53 PM 42.1 °F 36.1 °F 39.9 °F 92% 30.29 in 2.0 mi ENE 10.4 mph 16.1 mph 0.00 in   Overcast
5:17 PM 42.1 °F 38.4 °F 39.0 °F 89% 30.29 in 4.0 mi NE 5.8 mph - 0.00 in   Overcast
5:46 PM 42.1 °F 36.6 °F 39.0 °F 89% 30.30 in 8.0 mi NE 9.2 mph - 0.00 in   Overcast
5:53 PM 42.1 °F 38.4 °F 39.9 °F 92% 30.30 in 6.0 mi NE 5.8 mph - 0.00 in   Overcast
6:10 PM 42.1 °F 37.1 °F 39.9 °F 92% 30.30 in 5.0 mi NE 8.1 mph - N/A   Overcast
6:53 PM 41.0 °F 35.8 °F 39.0 °F 93% 30.30 in 5.0 mi ENE 8.1 mph - N/A   Overcast
7:53 PM 41.0 °F 36.4 °F 39.0 °F 93% 30.31 in 5.0 mi ENE 6.9 mph - N/A   Overcast
8:31 PM 41.0 °F 38.0 °F 39.0 °F 93% 30.31 in 2.5 mi ENE 4.6 mph - N/A   Overcast
8:53 PM 41.0 °F 37.1 °F 39.0 °F 93% 30.30 in 2.5 mi NE 5.8 mph - N/A   Overcast
9:07 PM 41.0 °F 35.8 °F 39.0 °F 93% 30.30 in 4.0 mi NE 8.1 mph - N/A   Overcast
9:53 PM 41.0 °F 35.8 °F 39.0 °F 93% 30.30 in 3.0 mi NNE 8.1 mph - N/A   Overcast
10:06 PM 41.0 °F 36.4 °F 39.0 °F 93% 30.30 in 2.0 mi NE 6.9 mph - N/A   Overcast
10:16 PM 41.0 °F 37.1 °F 39.0 °F 93% 30.30 in 1.5 mi ENE 5.8 mph - N/A   Overcast
10:46 PM 41.0 °F 38.0 °F 39.0 °F 93% 30.29 in 1.8 mi ENE 4.6 mph - N/A   Overcast
10:53 PM 41.0 °F 36.4 °F 39.0 °F 93% 30.29 in 1.8 mi NE 6.9 mph - N/A   Overcast
11:08 PM 41.0 °F 38.0 °F 39.0 °F 93% 30.28 in 2.0 mi Variable 4.6 mph - N/A   Overcast
11:16 PM 41.0 °F 36.4 °F 39.0 °F 93% 30.28 in 1.5 mi ENE 6.9 mph - N/A   Overcast
11:48 PM 41.0 °F 37.1 °F 39.2 °F 93% 30.28 in 1.8 mi NE 5.8 mph - N/A   Overcast
11:53 PM 41.0 °F 37.1 °F 39.0 °F 93% 30.28 in 1.8 mi NE 5.8 mph - N/A   Overcast